Orbital Elements
Epoch 2022 Jan. 21.0 TT = JDT 2459600.5
T 2021 Apr. 22.32868 TT Rudenko
q 2.6461651 (2000.0) P Q
z +0.0004418 Peri. 239.40286 +0.33365488 -0.86105157
+/-0.0000004 Node 155.64321 -0.13754795 +0.35825464
e 0.9988309 Incl. 111.48852 -0.93260655 -0.36089308
From 774 observations 2019 Aug. 26-2022 Jan. 11, mean residual 0".7.
|